Location: Kelshall
(52.0000°N, 0.0500°W)
Time: 13:23:18
(UTC+00:00)

Cosmos 1908 Rocket - Pass Details

Date: 18 September 2020
Orbit: 607 x 631 km, 82.5° (Epoch: 25 October)

Event Time Altitude Azimuth Distance (km) Brightness Sun altitude
Rises 18:45:33 0° 192° (SSW) 2,861 7.0 -6.7°
Reaches altitude 10° 18:47:45 10° 193° (SSW) 1,965 6.2 -7.0°
Maximum altitude 18:52:06 81° 279° (W) 630 3.7 -7.7°
Drops below altitude 10° 18:56:32 10° 9° (N) 1,995 6.2 -8.4°
Sets 18:58:47 0° 11° (N) 2,910 7.1 -8.7°
